Weather History for Charlotte, NC

Change the Weather History Date:

Monday, June 27, 2011

  Actual Average Record
Temperature  
Mean Temperature 80 °F 78 °F  
Max Temperature 93 °F 88 °F 103 °F (1954)
Min Temperature 67 °F 67 °F 56 °F (2012)
Degree Days  
Heating Degree Days 0 0  
Month to date heating degree days 0 0  
Since 1 June heating degree days 0 0  
Since 1 July heating degree days 3359 3385  
Cooling Degree Days 15 13  
Month to date cooling degree days 361 272  
Year to date cooling degree days 656 435  
Since 1 June cooling degree days 361 272  
Growing Degree Days 30 (Base 50)    
Moisture  
Dew Point 66 °F    
Average Humidity 64    
Maximum Humidity 90    
Minimum Humidity 38    
Precipitation  
Precipitation 0.00 in 0.11 in 1.86 in (2005)
Month to date precipitation 1.27 3.41  
Year to date precipitation 18.64 20.37  
Snow  
Snow 0.00 in 0.00 in 0.00 in ()
Month to date snowfall 0.0 0.0  
Since 1 June snowfall 0.0 0.0  
Since 1 July snowfall 6.1 4.3  
Snow Depth 0.00 in    
Sea Level Pressure  
Sea Level Pressure 29.98 in    
Wind  
Wind Speed 4 mph (WSW)    
Max Wind Speed 12 mph    
Max Gust Speed 16 mph    
Visibility 10 miles    
Events      
T = Trace of Precipitation, MM = Missing Value Source: NWS Daily Summary

Daily Weather History Graph

Daily Weather History Graph

Search for Another Location

Airport:

Trip Planner

Search our weather history database for the weather conditions in past years. The results will help you decide how hot, cold, wet, or windy it might be!

Date:

Astronomy

Jun. 27, 2011 Rise Set
Actual Time 6:11 AM EDT 8:42 PM EDT
Civil Twilight 5:41 AM EDT 9:12 PM EDT
Nautical Twilight 5:04 AM EDT 9:49 PM EDT
Astronomical Twilight 4:23 AM EDT 10:29 PM EDT
Moon 2:59 AM EDT (6/27) 5:30 PM EDT (6/27)
Length of Visible Light 15h 30m
Length of Day
14h 31m
Waning Crescent, 14% of the Moon is Illuminated
Jun 27
Waning Crescent
Jul 1
New
Jul 8
First Quarter
Jul 15
Full
Jul 23
Last Quarter

Hourly Weather History & Observations

Time (EDT) Temp. Heat Index Dew Point Humidity Pressure Visibility Wind Dir Wind Speed Gust Speed Precip Events Conditions
12:52 AM 73.9 °F - 66.9 °F 79% 29.95 in 10.0 mi NW 5.8 mph - N/A   Partly Cloudy
1:52 AM 72.0 °F - 64.9 °F 78% 29.96 in 10.0 mi WNW 3.5 mph - N/A   Partly Cloudy
2:52 AM 72.0 °F - 66.9 °F 84% 29.95 in 10.0 mi Calm Calm - N/A   Overcast
3:52 AM 72.0 °F - 66.9 °F 84% 29.95 in 10.0 mi Calm Calm - N/A   Mostly Cloudy
4:52 AM 70.0 °F - 66.0 °F 87% 29.95 in 10.0 mi Calm Calm - N/A   Clear
5:52 AM 69.1 °F - 66.9 °F 93% 29.97 in 10.0 mi Calm Calm - N/A   Partly Cloudy
6:52 AM 70.0 °F - 66.0 °F 87% 29.98 in 10.0 mi Calm Calm - N/A   Scattered Clouds
7:52 AM 75.0 °F - 68.0 °F 79% 29.99 in 10.0 mi WSW 3.5 mph - N/A   Scattered Clouds
8:52 AM 75.9 °F - 68.0 °F 76% 30.00 in 10.0 mi Calm Calm - N/A   Mostly Cloudy
9:52 AM 78.1 °F - 68.0 °F 71% 30.01 in 10.0 mi Calm Calm - N/A   Mostly Cloudy
10:52 AM 82.9 °F 85.8 °F 68.0 °F 60% 30.01 in 10.0 mi SSW 4.6 mph - N/A   Scattered Clouds
11:52 AM 87.1 °F 89.9 °F 66.9 °F 51% 30.01 in 10.0 mi SSW 8.1 mph - N/A   Scattered Clouds
12:52 PM 88.0 °F 89.3 °F 64.0 °F 45% 30.00 in 10.0 mi Variable 6.9 mph - N/A   Scattered Clouds
1:52 PM 90.0 °F 91.3 °F 64.0 °F 42% 30.01 in 10.0 mi SSW 6.9 mph - N/A   Scattered Clouds
2:52 PM 91.0 °F 93.8 °F 66.0 °F 44% 29.98 in 10.0 mi South 8.1 mph - N/A   Scattered Clouds
3:52 PM 91.9 °F 93.3 °F 64.0 °F 39% 29.96 in 10.0 mi SSW 6.9 mph - N/A   Scattered Clouds
4:52 PM 91.9 °F 93.3 °F 64.0 °F 39% 29.95 in 10.0 mi West 8.1 mph - N/A   Scattered Clouds
5:52 PM 91.9 °F 92.9 °F 63.0 °F 38% 29.93 in 10.0 mi SW 3.5 mph - N/A   Scattered Clouds
6:52 PM 90.0 °F 91.3 °F 64.0 °F 42% 29.93 in 10.0 mi WSW 4.6 mph - N/A   Scattered Clouds
7:52 PM 84.9 °F 87.6 °F 66.9 °F 55% 29.97 in 10.0 mi West 3.5 mph - N/A   Scattered Clouds
8:52 PM 82.0 °F 84.9 °F 68.0 °F 62% 29.98 in 10.0 mi NW 4.6 mph - N/A   Scattered Clouds
9:52 PM 77.0 °F - 69.1 °F 76% 29.99 in 10.0 mi Calm Calm - N/A   Scattered Clouds
10:52 PM 79.0 °F - 69.1 °F 72% 30.00 in 10.0 mi WSW 3.5 mph - N/A   Scattered Clouds
11:52 PM 77.0 °F - 70.0 °F 79% 30.02 in 10.0 mi NNW 5.8 mph - N/A   Partly Cloudy